Farmington, MO

12:22 PM CST on November 18, 2017 (GMT -0600)
Farmington Regional

Weather History for KFAM - April, 2013

Change the Weather History Date:

Wednesday, April 17, 2013

  Actual Average Record
Temperature  
Mean Temperature 65 °F -  
Max Temperature 82 °F 65 °F 84 °F (2002)
Min Temperature 48 °F 44 °F 32 °F (1997)
Growing Degree Days 15 (Base 50)    
Moisture  
Dew Point 57 °F    
Average Humidity 78    
Maximum Humidity 100    
Minimum Humidity 48    
Precipitation  
Precipitation 0.00 in - - ()
Sea Level Pressure  
Sea Level Pressure 29.98 in    
Wind  
Wind Speed 8 mph (SSE)    
Max Wind Speed 25 mph    
Max Gust Speed 33 mph    
Visibility 6 miles    
Events      
Averages and records for this station are not official NWS values.
T = Trace of Precipitation, MM = Missing Value Source: NWS Daily Summary

Daily Weather History Graph

Daily Weather History Graph

Search for Another Location

Airport or City:

Trip Planner

Search our weather history database for the weather conditions in past years. The results will help you decide how hot, cold, wet, or windy it might be!

Date:

Astronomy

Apr. 17, 2013 Rise Set
Actual Time 6:23 AM CDT 7:39 PM CDT
Civil Twilight 5:56 AM CDT 8:06 PM CDT
Nautical Twilight 5:23 AM CDT 8:39 PM CDT
Astronomical Twilight 4:49 AM CDT 9:13 PM CDT
Moon 11:39 AM CDT (4/17) 1:15 AM CDT (4/17)
Length of Visible Light 14h 10m
Length of Day
13h 16m
Waxing Crescent, 42% of the Moon is Illuminated
Apr 17
Waxing Crescent
Apr 18
First Quarter
Apr 25
Full
May 2
Last Quarter
May 9
New

Hourly Weather History & Observations

Time (CDT) Temp. Heat Index Dew Point Humidity Pressure Visibility Wind Dir Wind Speed Gust Speed Precip Events Conditions
12:15 AM 48.2 °F - 46.4 °F 93% 30.12 in 0.5 mi NE 6.9 mph - N/A   Overcast
12:35 AM 48.2 °F - 46.4 °F 93% 30.12 in 0.5 mi NE 4.6 mph - N/A   Overcast
12:55 AM 48.2 °F - 46.4 °F 93% 30.12 in 0.5 mi ENE 4.6 mph - N/A   Overcast
1:15 AM 48.2 °F - 46.4 °F 93% 30.11 in 0.5 mi ENE 5.8 mph - N/A   Overcast
1:35 AM 48.2 °F - 46.4 °F 93% 30.11 in 0.5 mi ENE 6.9 mph - N/A   Overcast
1:55 AM 48.2 °F - 46.4 °F 93% 30.11 in 0.5 mi East 4.6 mph - N/A   Overcast
2:15 AM 48.2 °F - 46.4 °F 93% 30.10 in 0.5 mi East 3.5 mph - N/A   Overcast
2:35 AM 48.2 °F - 46.4 °F 93% 30.10 in 0.5 mi Calm Calm - N/A   Overcast
2:55 AM 48.2 °F - 46.4 °F 93% 30.10 in 0.5 mi Calm Calm - N/A   Overcast
3:15 AM 48.2 °F - 48.2 °F 100% 30.10 in 0.5 mi NE 3.5 mph - N/A   Overcast
3:35 AM 48.2 °F - 46.4 °F 93% 30.10 in 1.8 mi NNE 3.5 mph - N/A   Overcast
3:55 AM 48.2 °F - 48.2 °F 100% 30.10 in 2.5 mi NE 5.8 mph - N/A   Overcast
4:15 AM 48.2 °F - 48.2 °F 100% 30.10 in 3.0 mi NE 3.5 mph - N/A   Overcast
4:35 AM 48.2 °F - 48.2 °F 100% 30.10 in 2.5 mi NE 4.6 mph - N/A   Overcast
4:55 AM 50.0 °F - 48.2 °F 94% 30.09 in 2.5 mi ENE 3.5 mph - N/A   Overcast
5:15 AM 50.0 °F - 48.2 °F 94% 30.09 in 2.5 mi ENE 3.5 mph - N/A   Overcast
5:35 AM 50.0 °F - 48.2 °F 94% 30.09 in 2.5 mi East 3.5 mph - N/A   Overcast
5:55 AM 50.0 °F - 48.2 °F 94% 30.09 in 2.5 mi East 3.5 mph - N/A   Overcast
6:15 AM 50.0 °F - 48.2 °F 94% 30.08 in 2.5 mi ESE 4.6 mph - N/A   Overcast
6:35 AM 50.0 °F - 48.2 °F 94% 30.08 in 1.5 mi ESE 4.6 mph - N/A   Overcast
6:55 AM 50.0 °F - 48.2 °F 94% 30.06 in 1.2 mi ESE 5.8 mph - N/A   Overcast
7:15 AM 50.0 °F - 48.2 °F 94% 30.07 in 1.2 mi SE 3.5 mph - N/A   Overcast
7:35 AM 51.8 °F - 48.2 °F 88% 30.08 in 1.5 mi Calm Calm - N/A   Overcast
7:55 AM 51.8 °F - 48.2 °F 88% 30.08 in 1.5 mi Calm Calm - N/A   Overcast
8:15 AM 51.8 °F - 48.2 °F 88% 30.08 in 1.2 mi Calm Calm - N/A   Overcast
8:35 AM 51.8 °F - 50.0 °F 94% 30.08 in 0.8 mi Calm Calm - N/A   Overcast
9:15 AM 53.6 °F - 51.8 °F 94% 30.07 in 0.2 mi Calm Calm - N/A   Overcast
9:35 AM 53.6 °F - 51.8 °F 94% 30.06 in 0.2 mi ESE 3.5 mph - N/A   Overcast
9:55 AM 55.4 °F - 53.6 °F 94% 30.07 in 0.5 mi Calm Calm - N/A   Overcast
10:15 AM 55.4 °F - 55.4 °F 100% 30.07 in 0.8 mi SE 3.5 mph - N/A   Overcast
10:35 AM 57.2 °F - 55.4 °F 94% 30.07 in 1.2 mi Calm Calm - N/A   Overcast
10:55 AM 60.8 °F - 57.2 °F 88% 30.05 in 2.5 mi South 6.9 mph - N/A   Overcast
11:15 AM 64.4 °F - 62.6 °F 94% 30.04 in 4.0 mi South 8.1 mph - N/A   Overcast
11:35 AM 66.2 °F - 62.6 °F 88% 30.04 in 5.0 mi South 9.2 mph - N/A   Overcast
11:55 AM 69.8 °F - 64.4 °F 83% 30.02 in 7.0 mi South 15.0 mph 19.6 mph N/A   Overcast
12:15 PM 71.6 °F - 64.4 °F 78% 30.02 in 8.0 mi South 17.3 mph 21.9 mph N/A   Mostly Cloudy
12:35 PM 73.4 °F - 66.2 °F 78% 30.01 in 8.0 mi South 13.8 mph 19.6 mph N/A   Partly Cloudy
12:55 PM 75.2 °F - 66.2 °F 73% 30.00 in 9.0 mi SSE 13.8 mph - N/A   Clear
1:15 PM 77.0 °F - 66.2 °F 69% 29.99 in 10.0 mi SSE 13.8 mph - N/A   Scattered Clouds
1:35 PM 78.8 °F - 66.2 °F 65% 29.98 in 10.0 mi South 19.6 mph 23.0 mph N/A   Mostly Cloudy
1:55 PM 78.8 °F - 66.2 °F 65% 29.96 in 10.0 mi SSW 18.4 mph 25.3 mph N/A   Mostly Cloudy
2:15 PM 80.6 °F 82.3 °F 64.4 °F 58% 29.96 in 10.0 mi South 15.0 mph 19.6 mph N/A   Mostly Cloudy
2:35 PM 78.8 °F - 64.4 °F 61% 29.95 in 10.0 mi South 19.6 mph 24.2 mph N/A   Mostly Cloudy
2:55 PM 80.6 °F 82.3 °F 64.4 °F 58% 29.94 in 10.0 mi South 12.7 mph 19.6 mph N/A   Mostly Cloudy
3:35 PM 82.4 °F 83.9 °F 64.4 °F 54% 29.90 in 10.0 mi SSE 17.3 mph 23.0 mph N/A   Partly Cloudy
3:55 PM 82.4 °F 83.9 °F 64.4 °F 54% 29.88 in 10.0 mi South 17.3 mph 26.5 mph N/A   Partly Cloudy
4:15 PM 82.4 °F 83.4 °F 62.6 °F 51% 29.87 in 10.0 mi SSE 18.4 mph 31.1 mph N/A   Scattered Clouds
4:35 PM 82.4 °F 82.9 °F 60.8 °F 48% 29.86 in 10.0 mi South 20.7 mph 31.1 mph N/A   Scattered Clouds
4:55 PM 82.4 °F 82.9 °F 60.8 °F 48% 29.85 in 10.0 mi South 25.3 mph 33.4 mph N/A   Scattered Clouds
5:15 PM 82.4 °F 82.9 °F 60.8 °F 48% 29.86 in 10.0 mi South 18.4 mph 28.8 mph N/A   Scattered Clouds
5:35 PM 80.6 °F 81.5 °F 60.8 °F 51% 29.85 in 10.0 mi South 17.3 mph 26.5 mph N/A   Mostly Cloudy
5:55 PM 80.6 °F 81.5 °F 60.8 °F 51% 29.83 in 10.0 mi South 23.0 mph 31.1 mph N/A   Mostly Cloudy
6:15 PM 80.6 °F 81.8 °F 62.6 °F 54% 29.83 in 10.0 mi South 16.1 mph 21.9 mph N/A   Partly Cloudy
6:35 PM 78.8 °F - 62.6 °F 57% 29.83 in 10.0 mi South 15.0 mph 24.2 mph N/A   Partly Cloudy
6:55 PM 78.8 °F - 60.8 °F 54% 29.82 in 10.0 mi South 17.3 mph 24.2 mph N/A   Clear
7:15 PM 78.8 °F - 62.6 °F 57% 29.82 in 10.0 mi South 12.7 mph 24.2 mph N/A   Partly Cloudy
7:35 PM 77.0 °F - 62.6 °F 61% 29.82 in 10.0 mi South 11.5 mph 23.0 mph N/A   Scattered Clouds
7:55 PM 77.0 °F - 62.6 °F 61% 29.81 in 10.0 mi South 18.4 mph 25.3 mph N/A   Scattered Clouds
8:15 PM 77.0 °F - 62.6 °F 61% 29.80 in 10.0 mi SSE 12.7 mph - N/A   Partly Cloudy
8:35 PM 75.2 °F - 64.4 °F 69% 29.80 in 10.0 mi SSE 13.8 mph 23.0 mph N/A   Clear
8:55 PM 75.2 °F - 62.6 °F 65% 29.81 in 10.0 mi South 15.0 mph 26.5 mph N/A   Scattered Clouds
9:15 PM 75.2 °F - 62.6 °F 65% 29.82 in 10.0 mi South 13.8 mph 24.2 mph N/A   Mostly Cloudy
9:55 PM 75.2 °F - 62.6 °F 65% 29.81 in 10.0 mi South 17.3 mph 29.9 mph N/A   Scattered Clouds
10:15 PM 75.2 °F - 62.6 °F 65% 29.80 in 10.0 mi South 15.0 mph - N/A   Mostly Cloudy
10:35 PM 73.4 °F - 62.6 °F 69% 29.80 in 10.0 mi South 17.3 mph 25.3 mph N/A   Mostly Cloudy
10:55 PM 73.4 °F - 62.6 °F 69% 29.79 in 10.0 mi South 19.6 mph 27.6 mph N/A   Scattered Clouds
11:15 PM 73.4 °F - 62.6 °F 69% 29.78 in 10.0 mi South 18.4 mph 27.6 mph N/A   Mostly Cloudy
11:35 PM 73.4 °F - 64.4 °F 73% 29.79 in 10.0 mi South 21.9 mph 31.1 mph N/A   Partly Cloudy
11:55 PM 73.4 °F - 62.6 °F 69% 29.78 in 10.0 mi South 16.1 mph 27.6 mph N/A   Mostly Cloudy